INTELSAT 12 (IS-12) (26590 NORAD) Tracking and Keplerian Element Data

This shows tracking and keplerian element data for the satellite.

Feedback or suggestion? Click here.




ElementValue
Catalog26590
NameINTELSAT 12 (IS-12)
Epoch Orbit2275
Epoch Day201.5075961
Epoch Year2018
RAAN90.4794
Inclination1.3415
Eccentricity0.0005759
Argument of Perigee353.3239
Mean Anonmoly82.1126
Mean Motion1.00272793
Decay Rate1.19E-06
L11 26590U 00068A 18201.50759610 .00000119 00000-0 00000-0 0 9992
L22 26590 1.3415 90.4794 0005759 353.3239 82.1126 1.00272793 22752

Live tracking and technical data element details for INTELSAT 12 (IS-12) (NORAD 26590). INTELSAT 12 (IS-12) can be tracked NOW for your location showing map with azimuth and elevation plus other details from your city location.

Track the satellite on the map from your city or location and see movement details for azimuth, elevation, latitude, longitude, range, height, and movement on the map or in text.







IsCatalogInMostPopularTable: catalog: 26590, numindb: 82
Update: records affected: 1



GetName: 26590 INTELSAT 12 (IS-12)

Hit Count: updated at: Sat, 21 Jul 2018 07:53:00 GMT